Lid_Strength_Index
2 2 2 2 2 2 2 2 2 2 2 1 1 1 1 1 1 2 5 3 2 -1 -1 3 3 4 4 6 7 8 9 11 11 10 9 8 7 6 6 6 6 6 6 4 4
3 3 3 3 2 2 2 2 2 2 2 1 1 1 1 1 3 5 1 -2 -1 -1 3 4 5 5 6 7 7 8 9 11 10 9 7 7 8 6 6 6 6 5 5 4 4
3 3 3 3 3 2 2 2 2 2 2 2 2 1 1 1 5 5 -3 -3 -1 -0 2 3 5 5 7 6 7 9 9 9 9 8 7 7 7 6 6 7 6 6 5 4 4
3 3 3 3 3 3 3 3 2 2 2 2 2 1 1 2 10 5 -2 -3 -1 1 3 5 5 7 7 8 7 8 8 8 7 6 7 7 6 7 7 6 5 5 5 4 4
4 4 4 4 4 3 3 3 3 3 2 2 2 1 2 6 6 2 -2 -2 2 3 4 5 6 7 8 8 8 8 8 7 7 7 7 7 7 7 6 4 3 3 3 3 3
4 4 4 4 4 3 3 3 3 3 3 2 2 1 5 8 4 2 2 3 3 3 4 5 6 6 7 8 8 8 7 7 7 7 7 7 7 6 5 4 4 4 4 3 3
4 4 4 4 4 4 3 3 3 3 3 2 1 2 5 6 3 2 2 3 3 3 5 4 4 6 6 8 7 7 8 7 7 7 7 7 8 8 5 4 5 4 4 3 3
4 4 4 4 4 4 3 3 3 3 2 2 1 3 5 3 2 2 2 3 3 3 3 3 4 5 6 6 7 8 8 9 8 7 7 7 9 7 4 5 5 5 4 4 3
4 4 4 4 4 4 4 4 2 2 2 1 3 4 6 2 4 4 3 5 5 5 4 4 5 7 6 8 8 8 10 10 9 7 7 7 9 7 5 5 6 5 5 4 4
4 5 5 4 4 4 4 3 1 1 1 2 3 5 4 6 4 5 4 5 5 5 5 6 6 7 7 8 11 11 10 10 10 8 7 8 8 7 6 6 6 5 5 4 4
4 5 5 5 4 4 4 4 5 6 5 7 7 7 6 4 4 5 5 5 5 5 8 7 8 10 9 8 8 9 9 10 8 7 8 8 8 8 6 6 6 5 5 5 4
4 4 4 4 4 4 5 5 6 5 7 6 6 6 5 4 6 5 4 7 7 9 8 8 10 8 7 8 9 9 10 10 8 7 7 8 8 8 7 7 6 6 5 5 4
5 5 5 4 4 5 5 5 4 5 7 7 6 6 5 5 6 7 6 7 8 9 9 9 9 7 8 8 9 9 10 10 10 8 7 9 10 10 7 6 6 5 5 4 4
5 5 5 5 6 7 5 4 5 4 8 8 7 7 6 6 8 5 5 6 8 9 9 9 7 8 8 8 8 10 8 8 9 10 12 9 14 10 9 8 7 6 5 5 4
5 5 5 5 6 5 5 4 4 3 15 7 8 5 6 7 7 6 5 6 9 8 8 10 8 9 9 9 8 9 7 9 9 10 11 11 13 11 9 10 8 6 5 4 4
5 5 5 5 6 5 4 4 2 10 15 9 8 8 7 7 7 6 6 5 6 8 8 9 7 7 8 7 7 7 9 9 9 10 15 13 13 11 10 10 8 6 5 5 4
5 5 5 4 5 4 4 3 9 14 8 10 10 8 9 9 8 8 8 8 9 11 11 9 9 7 7 8 7 8 10 15 14 14 15 11 13 11 9 8 7 7 6 4 4
6 6 5 4 3 3 3 6 13 10 10 9 9 9 10 9 9 9 9 10 9 9 10 12 13 9 7 9 10 10 11 17 22 18 16 12 15 12 8 7 6 5 5 4 4
7 5 3 2 3 4 5 10 11 9 9 10 10 11 11 10 9 9 9 9 9 8 11 11 12 8 7 8 8 11 13 10 16 14 17 13 11 8 8 7 6 6 5 5 4
8 6 3 3 3 3 7 11 9 8 8 9 12 11 12 11 10 9 10 8 8 8 7 9 13 9 8 7 7 9 8 14 13 20 20 14 14 13 10 9 7 6 6 5 4
7 7 3 3 3 5 9 9 9 7 7 10 11 11 10 11 10 10 10 8 7 8 7 8 10 10 8 10 11 10 10 11 12 14 19 19 14 9 9 8 8 7 5 5 4
8 10 4 4 7 8 9 8 9 8 7 8 9 9 10 9 10 10 10 8 6 6 9 8 9 12 10 8 7 8 10 10 15 17 15 16 16 7 7 7 6 6 5 4 4
9 8 3 4 9 8 8 8 7 8 8 9 9 8 8 9 10 9 9 6 6 6 8 7 10 12 11 10 8 10 9 9 11 12 15 19 15 7 7 7 6 6 5 4 4
8 9 7 7 8 9 9 9 9 7 8 8 9 8 9 9 8 9 9 7 6 6 5 6 10 11 16 12 9 11 10 9 10 15 14 15 13 9 8 7 6 6 5 5 4
8 9 9 10 9 9 9 9 10 9 8 7 9 8 8 10 9 9 9 8 7 7 7 7 11 11 10 10 10 10 11 10 12 11 15 12 12 9 8 7 6 6 5 5 5
9 9 9 10 10 10 10 10 10 9 9 9 9 8 8 9 8 9 8 8 8 7 8 8 11 11 11 9 10 11 10 10 10 10 11 11 11 6 6 6 6 6 5 6 5
9 9 9 11 11 11 10 10 10 10 9 8 8 8 9 8 6 5 5 5 6 8 9 9 10 12 13 11 11 13 11 10 10 9 10 12 9 7 7 7 6 6 5 5 5